Owensboro, KY

7:49 AM CDT on September 25, 2016 (GMT -0500)
Owensboro-Daviess County

Weather History for KOWB - October, 2012

Change the Weather History Date:

Friday, October 5, 2012

  Actual Average Record
Temperature  
Mean Temperature 60 °F -  
Max Temperature 75 °F 76 °F 91 °F (1951)
Min Temperature 43 °F 48 °F 29 °F (1980)
Degree Days  
Heating Degree Days 6    
Growing Degree Days 10 (Base 50)    
Moisture  
Dew Point 53 °F    
Average Humidity 85    
Maximum Humidity 97    
Minimum Humidity 62    
Precipitation  
Precipitation 0.17 in - - ()
Sea Level Pressure  
Sea Level Pressure 30.10 in    
Wind  
Wind Speed 6 mph (NNW)    
Max Wind Speed 17 mph    
Max Gust Speed 25 mph    
Visibility 7 miles    
Events Rain    
Averages and records for this station are not official NWS values.
T = Trace of Precipitation, MM = Missing Value Source: NWS Daily Summary

Daily Weather History Graph

Daily Weather History Graph

Search for Another Location

Airport or City:

Trip Planner

Search our weather history database for the weather conditions in past years. The results will help you decide how hot, cold, wet, or windy it might be!

Date:

Astronomy

Oct. 05, 2012 Rise Set
Actual Time 6:48 AM CDT 6:24 PM CDT
Civil Twilight 6:22 AM CDT 6:51 PM CDT
Nautical Twilight 5:51 AM CDT 7:21 PM CDT
Astronomical Twilight 5:21 AM CDT 7:51 PM CDT
Moon 9:53 PM CDT (10/5) 11:50 AM CDT (10/5)
Length of Visible Light 12h 29m
Length of Day
11h 36m
Waning Gibbous, 74% of the Moon is Illuminated
Oct 5
Waning Gibbous
Oct 8
Last Quarter
Oct 15
New
Oct 21
First Quarter
Oct 29
Full

Hourly Weather History & Observations

Time (CDT) Temp. Windchill Dew Point Humidity Pressure Visibility Wind Dir Wind Speed Gust Speed Precip Events Conditions
12:56 AM 61.9 °F - 57.9 °F 87% 30.14 in 10.0 mi South 5.8 mph - N/A   Clear
1:56 AM 59.9 °F - 56.8 °F 90% 30.14 in 10.0 mi Calm Calm - N/A   Clear
2:56 AM 61.0 °F - 57.9 °F 90% 30.13 in 10.0 mi Calm Calm - N/A   Clear
3:56 AM 59.9 °F - 56.8 °F 90% 30.13 in 10.0 mi South 3.5 mph - N/A   Clear
4:56 AM 59.9 °F - 57.9 °F 93% 30.14 in 9.0 mi NW 5.8 mph - N/A   Clear
5:56 AM 57.9 °F - 55.9 °F 93% 30.14 in 7.0 mi Calm Calm - N/A   Clear
6:56 AM 57.9 °F - 56.8 °F 96% 30.14 in 5.0 mi Calm Calm - N/A   Clear
7:56 AM 59.9 °F - 57.9 °F 93% 30.12 in 4.0 mi South 4.6 mph - N/A   Clear
8:56 AM 61.9 °F - 59.0 °F 90% 30.14 in 5.0 mi NNW 6.9 mph - N/A   Clear
9:45 AM 62.6 °F - 57.2 °F 82% 30.15 in 7.0 mi North 8.1 mph - N/A   Mostly Cloudy
9:56 AM 63.9 °F - 57.9 °F 81% 30.14 in 7.0 mi North 6.9 mph - N/A   Mostly Cloudy
10:24 AM 64.4 °F - 57.2 °F 77% 30.14 in 7.0 mi Variable 4.6 mph - N/A   Scattered Clouds
10:56 AM 65.8 °F - 57.9 °F 76% 30.14 in 7.0 mi NW 6.9 mph - N/A   Mostly Cloudy
11:09 AM 66.2 °F - 57.2 °F 73% 30.13 in 7.0 mi Variable 3.5 mph - N/A   Scattered Clouds
11:56 AM 68.0 °F - 57.9 °F 70% 30.12 in 6.0 mi Variable 4.6 mph - N/A   Haze
12:56 PM 70.0 °F - 59.0 °F 68% 30.09 in 6.0 mi Calm Calm - N/A   Haze
1:56 PM 72.9 °F - 59.9 °F 64% 30.04 in 7.0 mi Calm Calm - N/A   Scattered Clouds
2:56 PM 75.9 °F - 61.9 °F 62% 30.03 in 10.0 mi NW 8.1 mph - N/A   Partly Cloudy
3:56 PM 72.0 °F - 59.0 °F 64% 29.99 in 7.0 mi North 8.1 mph - N/A   Partly Cloudy
4:56 PM 68.9 °F - 57.9 °F 68% 29.97 in 10.0 mi NNW 8.1 mph - N/A   Mostly Cloudy
5:56 PM 57.9 °F - 52.0 °F 81% 30.04 in 8.0 mi NW 17.3 mph 25.3 mph N/A   Overcast
6:35 PM 53.6 °F - 51.8 °F 94% 30.03 in 10.0 mi North 15.0 mph - 0.00 in   Overcast
6:47 PM 53.6 °F - 50.0 °F 88% 30.03 in 8.0 mi North 13.8 mph - 0.00 in   Overcast
6:56 PM 52.9 °F - 48.9 °F 86% 30.05 in 8.0 mi NNW 17.3 mph 25.3 mph 0.00 in   Overcast
7:56 PM 48.9 °F - 45.0 °F 86% 30.09 in 10.0 mi North 12.7 mph - 0.00 in Rain Light Rain
8:56 PM 47.8 °F - 45.0 °F 90% 30.09 in 10.0 mi North 10.4 mph - 0.01 in Rain Light Rain
9:16 PM 48.2 °F - 46.4 °F 93% 30.10 in 10.0 mi NNW 10.4 mph - 0.00 in Rain Light Rain
9:56 PM 45.9 °F 39.7 °F 43.9 °F 93% 30.13 in 9.0 mi NNW 13.8 mph 20.7 mph 0.01 in Rain Light Rain
10:45 PM 44.6 °F 38.8 °F 42.8 °F 93% 30.09 in 8.0 mi ENE 11.5 mph - 0.03 in Rain Light Rain
10:56 PM 45.0 °F 38.9 °F 41.9 °F 89% 30.16 in 4.0 mi NNW 12.7 mph - 0.05 in Rain Rain
11:03 PM 44.6 °F 39.2 °F 42.8 °F 93% 30.14 in 2.0 mi NNW 10.4 mph - 0.03 in Rain Heavy Rain
11:09 PM 44.6 °F 39.2 °F 42.8 °F 93% 30.14 in 3.0 mi North 10.4 mph - 0.04 in Rain Rain
11:26 PM 44.6 °F 39.2 °F 42.8 °F 93% 30.13 in 6.0 mi North 10.4 mph - 0.05 in Rain Light Rain
11:34 PM 44.6 °F 38.8 °F 42.8 °F 93% 30.14 in 6.0 mi North 11.5 mph - 0.05 in Rain Light Rain
11:56 PM 43.9 °F 38.8 °F 43.0 °F 97% 30.14 in 3.0 mi North 9.2 mph - 0.10 in Rain Rain